Location: SE Lincoln, NE
(40.7805°N, 96.6275°W)
Time: 06:23:30
(UTC-05:00)

X-37B - Visible Passes

Search period start: 27 September 2021 00:00
Search period end: 07 October 2021 00:00
Orbit: 381 x 393 km, 45.0° (Epoch: 29 August)

Date Brightness Start Highest point End Pass type
(mag) Time Alt. Az. Time Alt. Az. Time Alt. Az.
27 Sep 1.7 06:02:46 25° NW 06:04:02 36° N 06:07:00 10° ENE visible
28 Sep 3.0 05:07:03 23° NE 05:07:03 23° NE 05:08:31 10° ENE visible
28 Sep 1.5 06:39:30 10° WNW 06:42:32 42° N 06:45:34 10° E visible
29 Sep 1.6 05:43:38 35° NNW 05:44:01 36° N 05:46:59 10° ENE visible
30 Sep 4.0 04:47:59 13° ENE 04:47:59 13° ENE 04:48:27 10° ENE visible
30 Sep 1.0 06:20:17 18° WNW 06:22:28 56° NNE 06:25:35 10° E visible
01 Oct 2.1 05:24:41 36° NE 05:24:41 36° NE 05:27:02 10° E visible
02 Oct 0.5 06:01:28 44° WNW 06:02:22 86° NNE 06:05:31 10° ESE visible
03 Oct 3.4 05:06:03 18° E 05:06:03 18° E 05:07:03 10° E visible
03 Oct 1.6 06:38:21 15° W 06:40:28 30° SSW 06:43:17 10° SSE visible
04 Oct 1.6 05:43:03 38° SSE 05:43:03 38° SSE 05:45:16 10° SE visible
05 Oct 2.4 06:20:11 17° SW 06:20:11 17° SW 06:22:15 10° S visible
